TimeCDT,TemperatureF,Dew PointF,Humidity,Sea Level PressureIn,VisibilityMPH,Wind Direction,Wind SpeedMPH,Gust SpeedMPH,PrecipitationIn,Events,Conditions,WindDirDegrees,DateUTC
12:55 AM,45.9,44.2,94,30.14,10.0,Calm,Calm,-,N/A,,Clear,0,2012-10-09 05:55:00
1:55 AM,45.3,44.1,95,30.13,10.0,Calm,Calm,-,N/A,,Clear,0,2012-10-09 06:55:00
2:55 AM,44.8,43.3,95,30.13,10.0,Calm,Calm,-,N/A,,Clear,0,2012-10-09 07:55:00
3:55 AM,43.0,42.3,97,30.13,10.0,Calm,Calm,-,N/A,,Clear,0,2012-10-09 08:55:00
4:55 AM,43.0,41.7,95,30.12,10.0,Calm,Calm,-,N/A,,Clear,0,2012-10-09 09:55:00
5:55 AM,42.1,40.5,94,30.13,10.0,Calm,Calm,-,N/A,,Clear,0,2012-10-09 10:55:00
6:55 AM,40.8,39.9,97,30.13,10.0,Calm,Calm,-,N/A,,Clear,0,2012-10-09 11:55:00
7:55 AM,43.5,42.4,96,30.14,10.0,SSE,4.6,-,N/A,,Clear,150,2012-10-09 12:55:00
8:55 AM,50.5,47.1,88,30.15,10.0,SSE,4.6,-,N/A,,Clear,150,2012-10-09 13:55:00
9:55 AM,56.7,49.1,76,30.14,10.0,SSE,9.2,-,N/A,,Clear,150,2012-10-09 14:55:00
10:55 AM,61.9,49.1,63,30.13,10.0,South,9.2,-,N/A,,Clear,180,2012-10-09 15:55:00
11:55 AM,64.4,50.5,61,30.11,10.0,South,9.2,-,N/A,,Overcast,170,2012-10-09 16:55:00
12:55 PM,67.8,52.5,58,30.07,7.0,Variable,6.9,-,N/A,,Mostly Cloudy,0,2012-10-09 17:55:00
1:55 PM,72.1,55.0,55,30.03,10.0,SSW,5.8,-,N/A,,Scattered Clouds,200,2012-10-09 18:55:00
2:55 PM,74.7,56.8,54,30.00,10.0,South,6.9,-,N/A,,Scattered Clouds,180,2012-10-09 19:55:00
3:55 PM,75.6,58.3,55,29.97,10.0,Variable,6.9,-,N/A,,Overcast,0,2012-10-09 20:55:00
4:55 PM,76.3,58.8,55,29.95,10.0,SSE,9.2,-,N/A,,Mostly Cloudy,160,2012-10-09 21:55:00
5:55 PM,73.6,59.7,62,29.95,10.0,South,4.6,-,N/A,,Mostly Cloudy,170,2012-10-09 22:55:00
6:55 PM,70.7,60.8,71,29.94,10.0,SE,5.8,-,N/A,,Overcast,130,2012-10-09 23:55:00
7:55 PM,68.9,61.5,77,29.96,10.0,SE,4.6,-,N/A,,Overcast,140,2012-10-10 00:55:00
8:55 PM,68.7,62.1,79,29.97,10.0,SE,4.6,-,N/A,,Overcast,140,2012-10-10 01:55:00
9:55 PM,68.4,61.7,79,30.00,10.0,Calm,Calm,-,N/A,,Overcast,0,2012-10-10 02:55:00
10:55 PM,68.4,62.1,80,30.02,10.0,Calm,Calm,-,N/A,,Overcast,0,2012-10-10 03:55:00
11:55 PM,66.2,62.4,88,30.03,10.0,SSE,3.5,-,N/A,,Overcast,150,2012-10-10 04:55:00